Theta_e
300 300 300 300 300 300 300 300 299 300 302 304 303 304 306 308 303 301 309 312 309 310 312 313 314 316 316 316 317 319 320 321 322 323 322 321 322 324 324 325 326 326 327 330 330 330 330 329 330 334 336 338 342 347 351 354 355 355 357 357 357 355 352 355 359 362 362 361 362 362 361 361 359 357 353 352 353 351 350 348 348 349 348 345 348 353 354
299 299 299 300 299 298 299 299 300 300 301 303 305 305 307 307 307 310 311 311 310 311 312 314 315 317 317 317 320 320 320 319 322 322 321 321 321 322 323 324 325 326 327 329 330 330 330 329 329 331 334 335 337 339 344 348 351 355 355 356 358 357 354 357 358 362 365 366 365 364 362 361 363 361 359 356 351 350 349 349 352 353 352 349 347 349 353
298 298 299 299 298 298 297 299 300 300 301 303 305 306 307 308 307 311 310 309 307 312 315 315 318 318 317 318 316 318 319 319 319 321 320 321 321 322 323 325 325 327 327 328 329 329 330 330 329 330 332 335 335 336 339 343 348 354 355 354 356 356 357 358 361 362 363 363 364 364 365 363 362 363 362 359 357 360 356 353 357 359 355 350 347 347 349
296 299 297 298 298 298 298 298 299 299 299 300 304 304 307 306 305 309 310 308 306 311 314 315 317 317 316 315 316 317 318 318 319 319 320 321 322 322 323 323 325 326 326 327 327 328 328 329 330 330 331 333 335 336 336 339 342 347 350 355 351 353 354 356 357 357 359 364 365 364 364 365 364 364 363 362 362 361 357 355 361 355 353 354 355 349 346
295 299 298 297 297 296 294 296 299 300 301 303 305 307 309 309 309 307 306 308 313 313 314 313 313 314 314 314 314 315 316 318 318 318 318 321 322 322 323 324 325 324 325 326 328 328 328 328 328 330 330 331 334 337 337 338 340 341 346 351 354 353 353 351 354 357 356 359 362 363 364 364 365 365 365 363 361 360 356 358 358 361 362 356 356 356 352
296 298 297 297 295 288 290 302 304 303 301 302 304 305 307 309 310 308 309 313 314 314 313 313 312 313 314 315 316 318 318 317 317 318 319 319 320 322 323 324 324 326 326 326 327 329 331 329 328 331 332 331 334 338 340 341 338 339 341 346 350 351 352 353 353 354 357 356 358 362 364 363 364 363 363 363 361 360 359 359 360 359 359 361 360 363 359
295 298 297 292 287 290 302 306 307 307 307 307 305 309 309 310 312 312 312 312 313 313 314 314 315 317 317 318 316 317 317 318 317 318 317 318 320 320 321 323 325 326 326 326 327 328 328 329 330 330 330 330 333 337 338 338 339 341 341 343 346 346 347 351 353 354 353 355 355 357 358 360 363 362 361 361 361 362 357 357 358 359 359 360 361 361 360
299 296 294 285 288 300 303 304 305 307 306 307 308 306 308 310 311 312 311 311 312 314 313 314 315 316 316 317 318 317 317 317 317 316 316 316 317 318 319 320 322 324 325 325 326 327 329 330 328 330 330 330 330 333 335 335 337 338 338 340 341 341 341 343 345 347 350 350 353 356 357 357 358 360 359 362 361 361 361 357 358 359 361 361 360 360 361
293 295 294 292 300 299 300 299 303 302 300 304 305 299 304 309 310 311 311 311 312 311 312 312 313 315 316 315 316 316 315 316 316 316 316 316 317 318 320 318 319 323 324 324 327 329 329 329 327 329 331 329 330 330 332 333 335 335 336 337 338 339 339 338 340 343 345 349 352 354 355 356 356 354 355 355 359 361 360 360 360 361 357 357 363 362 361
298 294 292 293 293 290 296 303 307 306 307 309 309 306 302 309 310 311 310 309 309 309 310 311 312 311 311 308 312 316 316 315 315 316 316 317 318 317 318 320 320 322 322 322 323 325 328 329 329 330 331 330 329 330 330 330 331 334 334 334 336 338 337 338 340 342 345 347 349 350 352 353 352 351 352 354 352 351 355 355 352 355 356 353 354 354 357
296 294 291 291 289 293 303 303 306 309 310 309 309 302 298 308 309 311 311 309 309 309 309 310 311 308 304 307 312 313 314 314 315 315 316 316 316 317 318 318 320 320 321 322 322 323 324 325 328 330 331 332 329 330 330 329 330 332 331 332 335 334 335 338 339 341 347 347 346 346 348 349 350 351 349 352 355 356 356 356 357 357 358 355 355 358 358
296 295 291 290 296 295 303 306 306 305 308 306 302 290 292 308 309 309 310 309 309 309 311 311 309 307 305 307 310 312 313 314 316 316 316 316 316 317 317 319 320 320 323 322 322 321 320 323 326 328 329 330 330 331 331 330 331 332 332 332 335 337 338 338 339 342 344 344 345 343 346 347 351 354 356 353 353 353 354 355 355 357 359 357 356 356 357
295 295 294 296 297 305 307 306 307 306 307 302 293 288 301 309 310 310 311 310 310 311 310 309 306 309 311 312 313 313 314 314 314 315 316 317 317 317 317 319 321 320 321 321 320 320 322 324 323 326 328 327 329 330 330 330 331 332 332 334 334 335 336 337 337 339 341 342 341 342 344 348 349 351 353 351 352 352 350 352 356 357 355 357 357 356 357
294 294 292 293 297 305 307 308 308 308 301 291 291 305 312 311 309 310 310 310 311 310 310 309 311 312 312 313 312 313 313 314 315 315 316 317 317 318 320 320 320 320 319 321 321 321 323 323 324 325 326 327 328 330 329 329 331 332 333 333 334 334 334 334 336 338 340 342 342 342 346 347 349 348 351 352 350 350 350 352 353 354 355 355 356 356 358
297 296 293 291 287 302 309 307 305 306 297 302 309 310 311 311 309 309 309 311 310 310 310 311 312 311 310 311 312 313 314 313 314 314 315 317 316 317 318 319 320 319 319 319 320 322 323 324 324 324 325 326 328 329 329 331 332 333 332 333 333 333 334 333 334 336 338 340 341 341 344 345 345 346 349 351 351 350 348 348 350 352 354 355 355 355 356
293 293 291 290 300 305 310 307 301 304 306 311 312 310 307 310 309 310 309 311 312 312 311 310 310 310 310 311 312 313 313 313 314 314 316 317 317 317 317 318 318 319 319 320 320 322 322 326 327 326 326 326 327 328 330 333 333 334 334 333 333 332 333 334 333 334 335 336 338 343 343 344 344 345 347 348 349 348 346 347 349 350 352 354 354 353 354
297 295 299 304 308 309 309 309 310 312 313 314 313 312 309 309 310 311 310 311 313 313 312 310 309 308 310 311 311 311 311 312 312 313 314 315 316 316 316 316 319 318 318 318 319 321 322 324 326 328 327 326 326 327 331 333 333 332 332 332 332 331 331 331 332 332 333 335 337 340 341 342 343 344 346 348 348 348 347 348 350 349 350 352 353 353 355
307 307 308 310 308 308 308 310 312 312 312 313 313 311 309 310 312 312 310 312 312 313 313 309 309 309 310 309 309 310 311 311 312 314 314 315 315 315 316 317 317 317 317 318 318 319 321 323 324 326 327 327 326 327 330 332 332 331 331 331 330 331 330 330 329 330 330 332 334 338 339 340 341 343 344 345 346 348 349 350 351 351 351 352 353 354 354
299 294 307 306 306 308 308 308 310 311 312 312 312 311 311 312 312 311 312 311 312 311 313 311 310 309 309 309 310 311 311 311 311 312 312 313 314 314 314 316 316 316 317 316 317 317 318 321 322 323 324 326 327 327 328 329 331 331 331 330 329 330 330 329 329 330 331 331 332 333 336 339 340 341 341 343 345 345 345 346 348 349 351 351 351 351 350
300 299 305 306 308 309 309 309 308 307 310 312 312 313 313 313 313 312 312 312 310 310 310 312 310 309 310 309 309 309 309 309 310 311 311 312 313 314 315 315 316 316 316 316 316 317 317 319 321 322 323 324 326 327 327 327 329 330 329 328 327 328 329 329 329 329 329 331 332 331 331 333 334 337 339 341 341 343 345 343 341 342 344 345 345 346 348
302 305 307 308 309 308 308 308 309 310 309 310 310 312 312 311 310 311 311 311 311 311 311 311 309 308 309 310 310 309 309 309 310 310 311 312 312 313 313 314 315 315 316 316 316 317 318 320 320 321 322 323 325 327 327 328 329 328 327 327 328 328 328 329 329 330 330 330 328 328 330 333 333 335 336 337 338 339 342 343 341 339 338 338 339 342 344
298 300 303 308 300 300 305 307 309 310 310 310 310 311 310 310 310 311 311 310 311 310 311 310 310 309 309 309 310 309 309 310 310 311 311 312 312 312 314 314 315 316 316 315 316 317 318 320 320 322 322 324 325 325 327 328 328 327 327 326 326 327 328 328 329 329 328 327 328 330 329 330 331 333 333 322 329 338 339 338 327 316 316 332 336 339 338
298 305 306 309 309 308 308 309 310 311 311 310 310 309 309 310 310 311 310 309 310 308 310 311 310 309 308 309 310 309 309 310 311 311 311 311 312 312 313 314 314 315 315 316 316 316 318 320 320 321 322 323 325 325 327 328 327 327 326 324 323 324 326 326 326 327 328 328 330 331 331 331 332 330 331 334 313 310 319 325 320 312 306 305 306 309 325
309 309 311 310 309 307 308 310 311 310 311 310 309 310 310 310 310 310 310 310 308 308 308 309 310 310 309 309 308 309 309 310 311 310 311 312 312 313 314 314 314 314 314 315 316 316 318 319 320 321 321 322 324 325 327 327 327 327 325 324 321 321 323 324 325 326 327 328 329 329 329 330 330 329 328 328 331 317 305 311 312 308 305 304 303 303 305
308 313 313 312 310 310 311 311 311 311 311 311 310 309 309 310 309 310 309 309 309 308 308 308 309 310 309 308 309 308 308 309 310 311 312 312 312 313 313 314 314 314 314 315 316 317 317 318 321 321 321 322 324 324 326 326 326 325 326 325 324 324 323 323 324 324 324 326 327 327 327 327 327 329 327 327 326 328 340 305 303 305 305 304 304 302 301
312 312 313 313 312 311 312 310 309 310 310 311 310 311 311 310 312 311 309 309 309 309 308 308 308 309 310 308 308 308 308 309 310 311 312 311 312 312 311 312 313 314 314 315 316 317 320 320 319 320 320 322 324 325 326 326 326 326 326 325 325 324 324 323 322 322 324 324 325 325 326 326 327 326 327 327 327 327 326 328 335 321 305 302 301 301 299
313 313 312 311 309 309 309 307 306 309 309 310 310 310 310 310 308 309 310 309 309 310 309 309 309 309 309 309 309 308 308 309 310 311 311 311 311 312 312 312 313 314 314 314 315 316 317 320 320 320 320 321 324 324 325 325 325 325 324 324 323 323 324 323 322 322 323 323 323 323 324 325 325 326 327 327 327 326 326 326 327 327 332 339 318 300 322
311 313 312 307 305 306 308 310 310 311 310 310 310 309 309 311 310 308 307 308 309 309 309 309 309 308 308 308 308 308 308 309 308 309 310 311 311 312 313 313 313 313 313 313 314 316 317 318 319 320 321 323 324 324 324 323 323 323 322 322 322 321 321 321 321 322 322 322 323 323 323 323 324 325 325 325 326 326 325 327 327 328 330 332 335 323 309
312 311 311 312 311 310 311 311 310 309 310 311 311 310 309 307 307 307 307 307 308 308 307 308 309 309 308 308 308 308 308 308 308 310 310 311 312 312 312 312 312 312 313 313 312 313 314 315 315 316 318 320 320 321 321 320 321 321 321 321 320 320 320 320 321 321 322 322 322 322 320 320 321 323 324 326 326 327 327 327 327 327 327 330 332 333 328
311 311 311 311 311 311 309 307 308 308 308 309 309 309 309 307 306 306 306 307 307 306 307 308 308 307 309 308 308 307 308 307 309 310 310 309 310 311 311 312 311 311 311 311 312 312 312 312 313 313 314 316 317 318 318 319 318 320 320 320 320 319 319 320 320 319 319 319 319 318 319 321 322 324 324 326 326 326 326 326 327 326 326 327 326 328 330
311 312 311 311 310 310 308 308 308 308 308 308 308 308 308 308 307 306 306 306 307 306 307 307 307 307 307 307 308 309 309 309 310 309 310 310 311 310 311 310 308 307 308 309 311 311 311 311 312 312 314 316 316 316 316 317 317 318 318 318 319 318 318 318 317 318 317 318 319 318 319 320 322 323 323 323 324 325 325 326 326 326 326 325 325 325 328
311 310 309 308 308 307 307 308 307 307 307 308 307 306 307 307 306 306 307 306 306 306 307 307 307 306 307 308 309 309 309 309 309 309 309 309 309 310 310 309 309 309 309 310 310 311 310 310 310 312 314 314 314 314 314 315 316 315 315 317 317 318 317 317 316 316 317 319 318 318 318 319 319 321 322 322 322 323 324 323 324 324 324 323 323 326 327
309 308 307 307 307 306 306 307 307 307 307 306 306 307 308 308 308 307 307 308 307 307 307 307 308 308 308 309 308 309 309 309 309 308 308 308 308 309 310 309 309 310 309 309 309 310 310 309 310 311 312 313 313 313 313 314 314 313 314 314 314 315 316 314 314 314 316 316 317 317 318 319 320 320 320 320 321 322 322 322 321 321 322 322 323 324 324
310 309 309 310 310 307 307 307 307 307 307 308 309 309 308 308 308 308 307 307 306 306 307 307 309 309 309 308 308 308 308 307 305 306 307 307 308 308 309 308 309 309 309 309 309 309 310 310 310 310 311 312 311 311 311 312 312 312 312 312 311 311 312 313 314 315 315 316 316 317 317 318 318 318 319 319 320 320 320 320 320 320 320 321 322 322 316
313 313 312 311 311 312 311 310 309 308 308 307 309 310 309 309 310 309 308 307 306 307 308 309 309 309 308 308 307 307 306 306 306 307 307 307 308 309 309 308 308 308 308 309 309 308 310 309 309 310 310 310 310 310 311 310 310 310 310 310 311 311 311 313 313 313 314 314 315 315 315 316 317 318 318 318 318 318 318 318 319 319 319 319 320 321 318
312 311 311 311 312 312 310 311 309 310 309 309 309 308 309 309 309 309 308 308 308 308 309 308 308 308 308 307 306 306 306 306 306 306 307 307 308 308 308 307 307 306 306 306 308 309 308 309 310 310 309 308 309 310 310 310 309 309 310 309 309 309 310 311 311 312 313 313 313 314 314 315 316 316 316 316 316 316 317 317 318 318 318 317 317 317 317
312 310 310 311 311 309 309 310 309 308 308 308 310 311 310 310 310 310 310 309 309 309 309 308 307 306 306 307 307 307 306 306 306 306 306 306 307 307 306 305 305 305 305 304 306 307 307 308 309 309 308 307 307 308 310 310 309 309 309 308 308 308 308 308 309 310 310 312 312 313 314 314 314 314 315 315 314 315 315 315 316 316 316 316 316 315 315
310 310 310 309 311 310 310 310 310 308 308 310 311 311 311 310 310 310 309 309 308 308 309 308 307 307 307 307 307 306 305 305 305 305 306 305 306 304 304 304 303 304 303 304 306 306 306 307 307 307 306 306 307 307 308 308 309 308 308 307 307 307 307 307 308 309 309 310 311 311 312 312 311 312 312 313 313 314 314 314 314 314 313 313 314 314 313
307 307 309 311 312 313 314 314 312 310 309 308 309 310 311 311 311 310 309 308 308 309 308 308 308 307 306 305 305 305 305 305 305 304 304 304 305 304 303 304 304 305 305 307 307 306 306 306 306 305 305 306 306 306 307 308 309 307 306 306 306 306 306 307 307 307 308 309 309 310 310 310 310 310 310 311 311 312 312 312 312 312 311 312 312 311 310
305 306 306 305 306 310 311 311 311 312 311 309 307 308 310 310 310 309 309 309 309 309 308 307 307 305 305 305 304 304 304 305 305 304 304 303 304 303 303 304 306 306 306 306 306 305 305 305 305 305 305 306 305 304 306 306 307 305 304 304 304 305 305 306 306 306 306 307 307 308 308 308 308 309 309 309 310 310 310 311 310 310 310 310 310 309 308
305 305 305 306 306 306 306 307 308 309 310 309 308 308 310 309 309 309 309 309 310 309 309 308 306 305 305 304 304 304 304 305 305 304 304 303 302 301 300 300 304 305 306 305 306 305 305 304 305 304 304 304 303 305 305 306 304 304 304 304 304 304 304 304 304 305 305 305 306 306 306 306 306 306 307 307 308 308 309 309 309 309 309 308 308 307 306
306 307 307 306 307 305 305 306 306 306 308 309 309 308 309 310 309 308 310 310 310 310 310 308 306 306 306 306 305 304 304 304 304 304 303 302 301 301 300 301 304 304 304 304 305 304 304 304 305 304 302 302 303 304 304 304 303 303 303 303 303 304 303 303 303 304 305 305 305 305 305 305 305 305 305 305 306 306 306 307 307 307 307 307 306 305 305
306 304 304 305 307 308 307 304 305 306 307 310 309 309 308 310 309 309 309 310 309 308 309 307 306 305 305 305 304 303 303 303 303 303 303 303 304 304 303 303 304 304 303 304 304 303 302 303 302 302 302 302 302 302 303 302 302 302 303 303 303 303 303 302 302 303 303 303 303 303 304 304 303 303 303 303 304 304 305 305 305 305 305 305 305 304 303
304 304 304 305 305 307 307 309 306 305 305 306 308 308 307 308 309 309 309 310 309 309 307 306 306 305 306 305 304 303 302 303 302 302 301 301 302 304 305 304 304 304 302 303 302 302 301 302 301 301 302 301 301 301 301 301 302 302 302 302 302 302 302 302 302 302 302 302 302 302 302 303 302 302 302 302 303 302 303 303 303 304 304 304 303 303 302
303 304 304 304 306 306 306 306 307 305 306 307 306 307 309 307 308 310 308 308 308 308 308 306 305 305 305 304 304 304 304 303 303 302 300 299 299 300 304 303 303 303 302 301 302 301 301 301 301 301 301 301 301 301 301 301 300 300 300 300 300 301 301 300 301 301 301 301 302 302 302 302 302 302 302 302 303 302 302 302 302 302 302 302 302 302 301
302 302 303 303 304 304 306 307 308 309 309 306 305 306 308 308 308 306 308 308 308 308 307 306 306 305 305 305 305 305 305 305 304 304 304 303 300 302 304 303 304 303 301 301 302 300 301 301 300 300 300 301 301 301 300 300 300 299 299 299 299 300 299 300 300 300 300 301 301 301 301 301 301 301 301 301 301 301 301 301 301 302 302 301 301 301 301
301 301 301 301 303 305 306 306 307 307 307 308 307 306 307 308 307 307 309 309 307 307 308 307 306 306 306 306 305 304 303 303 304 305 305 304 305 303 303 302 303 301 301 302 301 301 301 301 300 299 299 300 300 300 299 298 298 299 298 298 299 298 299 299 299 299 299 299 300 301 301 301 301 300 301 300 300 300 300 299 299 299 300 300 300 300 300
303 301 302 304 303 305 306 305 305 305 305 307 306 306 306 307 308 307 306 308 307 308 308 307 305 306 306 306 306 306 305 304 300 302 305 304 304 304 303 302 302 301 301 302 301 300 300 299 299 299 299 299 299 298 297 297 298 298 298 297 297 298 297 297 297 298 298 299 299 299 299 299 299 299 299 299 299 299 299 298 298 298 298 299 298 299 299
301 301 301 302 302 301 303 304 303 303 304 305 306 305 305 307 307 306 306 307 306 306 306 305 305 306 306 306 306 305 306 306 305 302 304 305 304 304 304 303 301 301 301 301 300 301 300 299 299 298 298 299 297 297 297 297 297 298 297 296 297 297 297 296 297 297 297 297 298 298 298 298 298 298 298 298 298 298 298 297 297 297 297 297 297 297 296
303 301 302 300 300 302 304 302 301 303 303 305 308 309 306 304 304 303 303 303 304 305 304 304 305 306 306 306 305 306 306 306 305 305 305 305 304 305 303 303 303 301 300 301 301 300 300 300 299 299 298 298 297 297 297 297 296 296 296 296 297 297 297 297 296 296 297 296 296 296 296 297 297 297 297 297 297 297 297 297 297 296 295 296 296 295 295
302 303 302 303 304 306 306 305 305 305 306 306 306 309 308 307 305 304 304 304 304 304 304 304 304 305 305 305 304 305 306 305 305 304 304 304 305 303 302 303 302 302 302 301 301 300 300 300 300 299 298 298 297 297 297 297 296 296 296 296 296 296 296 297 297 296 295 296 296 296 295 296 295 295 296 296 297 296 296 296 296 296 295 295 294 294 294
302 302 303 303 303 302 304 304 306 308 306 305 305 306 306 307 307 307 304 302 305 304 304 304 302 304 305 305 303 304 304 304 303 303 304 303 302 303 302 301 302 301 301 301 300 301 300 300 299 298 298 298 298 297 297 297 296 295 296 296 296 296 296 296 296 296 296 296 295 295 295 296 295 295 295 295 295 295 295 295 295 295 295 295 295 295 294
Wind_Speed
1 3 7 7 4 4 2 2 3 3 1 5 10 8 4 8 10 4 14 14 17 17 16 13 11 9 8 7 7 7 8 10 9 9 10 11 12 12 13 13 13 13 14 13 13 13 13 14 14 13 11 10 11 9 8 4 5 9 8 7 10 8 5 9 7 11 12 12 11 11 11 11 12 13 13 12 12 12 12 13 14 14 15 15 14 14 14
5 2 2 1 3 2 5 6 3 3 7 4 5 3 5 5 2 12 14 16 16 15 15 12 11 8 9 7 6 8 9 8 8 9 10 11 12 12 13 13 12 12 12 13 13 13 13 13 13 13 10 11 10 11 10 8 8 8 11 6 6 5 6 9 12 9 8 9 9 10 10 11 11 12 13 13 14 14 14 14 12 12 12 13 15 15 15
5 4 4 7 4 3 7 5 6 4 4 3 4 3 1 2 6 11 17 17 15 10 12 10 8 8 8 7 7 7 5 6 8 9 10 10 11 11 12 11 12 12 12 13 13 13 13 13 13 11 11 11 10 11 11 12 10 5 9 9 6 6 5 7 13 9 8 9 9 9 10 11 11 11 12 12 12 11 12 12 11 10 12 14 15 15 16
7 6 6 5 5 6 8 6 8 8 8 8 4 6 4 5 8 13 17 14 12 11 12 10 8 8 8 9 8 6 5 5 4 7 9 10 10 11 11 11 11 12 12 13 13 13 13 13 12 11 11 11 11 10 10 12 12 11 9 7 9 8 9 11 10 15 11 9 9 10 10 11 11 11 11 12 11 12 13 14 11 13 14 14 13 15 14
8 8 5 5 4 7 9 11 10 9 8 5 4 2 3 2 7 12 11 8 10 13 11 12 11 8 6 5 5 7 7 4 5 5 7 9 9 9 10 11 11 12 12 12 12 12 12 12 11 12 12 11 11 9 9 8 9 12 12 8 7 7 8 8 12 11 15 13 10 11 10 11 11 11 11 12 13 13 15 14 13 13 13 14 15 14 15
7 8 5 3 6 10 6 1 11 10 9 5 6 5 5 3 3 3 6 10 13 13 11 10 11 11 8 7 4 4 3 5 4 5 7 7 8 9 10 10 10 10 10 10 10 11 10 11 12 10 11 11 10 10 8 6 8 9 10 10 9 8 3 2 5 10 11 14 13 10 9 10 10 11 12 12 13 13 12 12 13 13 15 15 14 13 14
8 6 3 6 10 6 9 6 8 5 2 6 4 8 6 7 10 11 14 13 12 11 10 9 9 10 9 6 6 4 4 2 4 5 4 6 7 8 8 9 9 9 10 10 10 11 10 10 10 10 10 11 10 9 10 9 7 6 9 9 8 9 10 9 6 6 8 9 13 14 12 11 9 11 11 12 13 12 12 12 13 13 13 14 14 15 15
6 6 6 7 5 9 5 7 4 6 2 2 6 8 5 4 7 10 10 10 7 8 8 7 4 5 9 8 6 5 4 3 3 4 5 6 7 8 7 8 7 8 9 9 10 9 9 9 10 10 10 10 11 10 9 9 9 8 9 9 9 8 8 9 9 9 9 8 9 9 10 13 12 11 11 9 11 9 11 11 9 12 12 13 14 15 16
8 7 7 6 8 6 8 6 6 5 6 7 7 6 8 5 3 8 11 11 9 8 7 7 13 7 11 9 7 6 4 3 4 4 5 6 6 7 6 7 7 8 8 9 9 8 8 8 10 10 9 10 10 10 10 9 10 10 10 10 11 11 11 10 10 10 10 11 11 12 8 6 7 9 11 10 10 7 8 10 10 10 11 11 9 12 15
6 7 9 9 8 9 10 9 9 5 4 3 5 6 7 7 6 3 10 8 9 8 7 7 4 3 8 9 9 7 7 5 4 3 5 5 6 7 8 6 7 8 9 9 8 8 8 7 8 8 8 9 10 10 10 10 10 10 10 10 11 12 12 12 12 12 11 11 12 13 13 11 7 5 4 3 3 2 3 3 6 10 4 8 11 15 16
7 8 8 8 6 4 8 11 10 6 5 2 4 7 8 8 9 5 10 11 9 10 8 6 5 7 8 5 6 6 3 4 4 5 5 6 7 6 7 8 9 9 9 8 9 8 8 8 8 8 7 8 9 9 9 10 10 9 10 10 10 11 12 12 11 10 9 9 11 11 11 11 7 2 3 4 6 5 3 4 7 8 7 7 8 9 6
7 7 8 8 6 3 10 11 10 8 4 5 7 8 7 12 10 8 7 6 10 4 4 4 6 6 4 7 6 4 4 3 4 4 5 6 7 7 7 7 9 9 8 8 8 9 10 9 9 9 7 7 9 8 9 9 9 9 10 10 10 10 10 11 10 10 9 8 8 8 8 8 8 6 4 6 7 9 7 5 7 8 9 8 8 8 8
8 8 8 7 4 7 11 12 10 9 5 5 7 8 8 9 10 5 7 7 7 6 5 5 5 3 6 4 3 3 5 5 5 6 5 6 6 8 9 9 9 7 7 8 9 10 9 8 9 9 8 8 8 9 9 9 9 9 8 9 10 10 10 11 11 11 11 9 10 11 9 7 6 5 5 5 4 4 7 7 8 7 9 8 10 10 9
9 8 9 7 2 5 9 8 9 10 7 8 6 9 7 8 10 6 6 8 5 6 2 2 3 4 5 4 3 5 5 6 6 6 7 7 8 7 8 9 8 8 8 9 9 10 9 10 10 9 10 10 9 9 9 9 10 9 9 9 9 10 11 11 11 11 12 11 10 8 6 5 7 5 4 4 4 5 5 5 8 10 11 10 10 9 8
7 7 8 5 7 7 6 11 8 7 8 5 8 8 9 10 9 8 6 6 7 3 5 2 2 4 4 6 6 6 6 7 7 8 8 8 8 8 8 9 9 10 9 10 10 10 10 10 10 9 10 10 10 9 9 10 9 9 10 10 10 10 10 11 10 10 10 12 11 8 6 6 6 7 6 5 6 6 6 7 8 9 10 10 11 11 10
8 8 8 4 4 10 8 8 3 7 4 8 7 8 7 4 6 4 6 5 5 3 1 1 2 3 5 5 4 4 6 6 7 7 7 8 8 8 8 8 9 11 11 10 11 11 10 9 9 9 9 10 10 10 11 9 9 9 10 10 10 11 10 10 10 10 10 10 10 9 9 7 7 8 7 6 6 6 8 8 8 8 6 8 10 12 12
5 4 3 5 5 8 6 5 9 10 10 7 6 3 1 7 5 2 0 3 5 3 1 1 2 4 3 3 4 5 5 6 7 8 8 9 9 9 9 9 9 10 11 13 12 12 10 11 10 9 9 10 11 11 10 8 9 9 9 9 10 11 11 11 10 10 10 9 9 9 8 8 9 8 9 8 6 4 6 7 9 9 8 7 10 11 11
5 2 2 4 6 3 5 5 7 8 7 7 4 3 3 1 3 3 1 5 4 4 2 2 2 2 2 3 5 5 5 7 7 7 9 9 10 10 10 10 10 10 11 12 13 13 12 11 11 10 9 10 12 11 10 9 9 9 8 9 10 11 11 10 11 11 11 10 9 9 10 9 8 7 7 8 7 5 4 6 8 9 8 7 8 9 11
2 2 9 7 5 5 4 4 6 6 6 4 4 4 2 4 4 3 4 1 2 2 2 2 2 3 3 3 3 4 5 6 7 9 9 10 10 11 11 11 11 11 11 11 12 13 14 13 11 11 12 10 11 11 11 11 9 9 8 8 8 9 11 11 11 10 9 8 9 9 9 8 7 8 7 6 6 7 6 5 4 5 6 7 7 9 9
7 3 4 1 2 4 4 4 5 5 6 4 3 3 3 5 4 2 3 3 4 3 4 5 3 2 2 3 3 4 4 5 7 7 8 10 10 10 12 12 12 12 11 11 12 13 13 13 12 12 12 12 11 11 12 12 11 10 9 8 8 9 11 11 10 9 8 8 8 8 8 9 9 9 9 8 7 6 7 6 4 4 5 6 5 6 8
8 5 5 3 2 4 7 9 10 7 7 7 6 4 5 5 5 5 4 3 1 1 0 3 2 3 2 3 4 4 5 6 6 7 9 9 11 11 12 12 12 12 12 13 13 14 13 13 13 13 13 12 12 12 12 11 11 11 10 9 8 10 10 10 9 8 7 7 8 8 8 8 7 8 9 10 10 10 9 8 7 4 4 6 6 6 5
8 6 6 10 7 7 8 9 6 4 4 6 8 6 5 5 5 4 4 4 3 3 2 2 2 3 2 3 4 5 6 6 6 8 8 9 11 12 11 11 12 13 13 13 13 14 13 13 13 13 13 13 12 12 12 11 12 12 11 10 9 9 9 9 9 9 9 9 8 7 7 7 8 8 8 11 11 11 10 9 11 13 8 7 7 6 7
2 7 7 1 5 4 2 2 7 7 6 7 8 8 6 5 5 4 2 2 4 4 3 4 1 2 3 4 4 6 6 6 6 7 8 9 9 10 12 12 12 13 13 14 15 15 14 14 13 13 13 13 12 12 12 11 12 12 11 10 10 9 9 8 9 10 9 9 8 8 8 7 7 8 9 8 9 14 14 12 13 14 15 16 15 12 8
6 5 1 1 2 5 1 1 6 6 5 6 8 7 7 6 6 6 5 4 2 4 3 3 5 5 4 4 5 6 6 7 7 7 8 9 9 10 10 10 12 13 13 14 14 15 15 15 14 13 14 13 12 13 13 12 11 11 11 9 10 11 9 9 9 9 9 9 9 9 8 8 8 7 8 9 9 8 15 15 15 17 16 16 17 15 14
7 3 4 3 4 5 2 4 5 7 7 7 7 8 6 6 3 1 6 7 6 5 5 6 5 2 4 6 6 5 6 7 7 8 8 8 9 9 9 10 11 12 12 13 14 15 15 14 15 14 13 13 12 13 13 13 13 11 10 9 8 9 10 11 10 10 10 10 10 9 9 9 9 8 8 8 9 9 5 11 17 18 16 17 18 17 15
7 7 5 4 5 6 4 3 6 7 7 7 7 8 9 5 2 7 6 5 5 5 6 5 5 4 4 5 5 6 7 7 7 7 7 7 7 8 9 9 10 10 11 12 13 14 15 16 13 14 13 12 13 13 12 12 11 10 9 8 8 7 8 10 11 11 10 10 10 10 9 9 9 10 9 8 8 9 10 10 8 10 14 17 18 16 14
7 5 4 5 8 8 7 9 8 10 9 8 8 9 6 6 3 2 5 5 6 5 5 5 4 4 4 4 6 6 6 7 7 6 7 7 8 8 8 8 10 12 13 12 11 13 15 13 13 13 12 11 11 12 11 10 9 8 8 8 8 9 15 13 10 10 9 10 11 11 11 10 9 10 10 9 9 8 8 9 10 10 10 7 11 14 9
6 6 6 8 7 9 9 9 8 9 10 10 10 10 8 8 9 8 9 8 3 4 5 5 5 5 5 4 5 6 6 6 6 6 7 6 6 7 8 9 10 11 11 11 10 11 12 12 11 12 11 10 10 10 8 7 6 7 7 7 7 8 10 12 11 10 10 10 9 10 11 11 11 10 10 10 10 9 8 8 9 10 8 9 10 6 13
7 7 6 7 9 9 7 7 9 10 10 10 10 9 8 9 8 8 7 8 7 5 5 5 5 4 5 5 5 5 6 6 7 7 6 6 7 8 8 9 9 10 10 10 9 10 10 10 10 10 10 11 10 10 10 9 8 8 8 8 8 9 10 10 10 10 10 10 10 10 11 11 11 11 11 11 10 10 10 8 8 8 8 8 8 10 8
6 6 6 7 8 9 10 10 11 12 11 12 12 11 9 9 9 9 7 7 6 7 5 5 5 5 5 5 5 5 6 6 7 6 6 6 7 7 8 9 10 9 8 8 9 10 10 11 10 9 9 10 10 9 9 8 8 9 9 10 9 10 10 10 10 11 11 11 11 13 11 10 10 11 11 11 10 10 10 9 8 8 9 8 8 8 9
4 5 6 7 8 9 10 11 11 11 11 11 12 11 10 10 10 9 8 7 6 6 5 5 5 5 5 5 5 5 6 6 6 6 7 7 7 7 8 8 9 9 10 10 9 9 9 10 10 9 9 10 10 10 9 9 8 9 9 9 9 11 10 6 7 10 11 11 11 11 10 10 10 11 12 12 11 10 10 10 9 8 7 8 8 8 7
5 5 7 7 9 10 10 9 11 12 11 11 11 12 11 11 12 10 8 7 7 7 7 6 6 6 5 5 5 5 6 6 7 7 7 6 7 7 8 8 9 9 9 10 9 9 9 9 10 9 10 10 10 11 10 9 9 9 10 10 10 10 10 10 10 11 10 10 10 10 10 10 10 10 10 11 11 11 11 10 10 9 8 8 8 7 8
5 6 7 8 9 10 11 11 11 12 11 12 11 10 11 11 8 9 9 8 6 5 5 6 6 6 5 5 5 6 6 6 6 7 6 6 7 7 7 7 8 9 8 8 9 9 9 9 9 10 10 10 10 11 11 10 10 9 9 9 10 10 11 12 12 11 11 11 10 10 9 9 10 10 11 11 11 12 11 12 11 11 10 10 10 9 5
6 6 6 6 8 9 12 12 12 12 12 11 11 11 10 9 10 10 9 7 7 6 6 7 7 5 5 6 6 6 5 6 6 6 6 7 7 7 7 7 8 8 8 8 8 7 6 8 9 9 11 11 12 11 11 11 10 10 9 9 9 10 10 10 11 10 10 11 10 10 10 10 10 10 10 10 11 11 12 12 12 11 11 10 9 9 7
6 8 8 8 8 9 11 11 11 11 11 13 13 11 11 11 10 9 8 8 8 7 7 6 6 5 6 6 6 6 5 6 6 7 7 7 7 8 7 8 9 8 8 7 7 7 7 8 9 10 11 11 11 11 10 11 10 9 10 10 10 10 10 11 11 11 11 11 11 11 10 9 9 10 11 11 10 11 11 11 12 11 11 10 10 9 8
7 8 8 8 8 10 7 10 8 9 9 8 9 12 11 10 9 9 10 9 7 7 7 6 5 6 6 5 5 5 5 6 6 6 7 7 7 7 8 8 9 8 8 8 6 7 8 8 11 14 11 11 10 10 10 10 10 11 11 11 10 10 10 11 11 11 11 11 11 10 9 10 11 11 10 11 10 10 11 11 11 11 10 10 9 9 9
8 9 9 7 3 7 8 6 5 9 13 16 15 11 9 9 9 9 8 8 8 7 7 7 6 6 6 5 4 4 4 5 5 6 6 7 7 8 8 8 9 9 9 8 7 8 9 9 13 17 12 10 9 10 10 13 10 11 12 12 12 11 10 10 10 10 10 10 10 10 10 10 9 9 9 9 10 10 10 10 10 10 10 10 10 9 9
10 11 8 9 7 6 8 8 4 3 12 13 9 9 10 9 9 8 8 9 8 8 8 8 7 5 5 4 4 4 4 4 5 6 6 6 6 8 8 8 8 8 8 8 9 9 8 11 16 13 10 9 9 10 11 16 16 12 10 11 11 10 10 10 10 10 10 10 10 10 10 10 10 9 8 9 9 9 9 10 10 10 10 9 9 9 8
13 13 13 12 9 7 8 5 3 3 4 10 11 10 10 9 9 9 9 8 8 8 8 8 6 6 5 5 4 3 3 3 4 6 6 6 7 7 7 7 6 6 6 8 9 9 9 10 11 10 9 9 10 10 12 14 17 12 11 11 11 11 10 10 11 11 10 10 10 10 10 10 10 9 9 8 8 8 9 10 10 9 10 9 9 8 8
8 6 5 9 12 7 6 5 5 5 4 4 9 11 10 10 10 10 9 8 8 8 7 6 7 5 5 4 4 3 3 2 4 5 5 5 6 7 7 6 4 5 7 10 9 9 11 15 12 9 8 8 9 9 10 14 15 12 11 10 10 10 10 10 10 10 9 9 10 10 9 9 8 9 8 8 8 8 8 9 9 9 9 9 8 8 8
11 9 8 7 7 8 10 9 9 8 7 4 2 10 10 10 10 9 9 8 8 8 8 8 7 5 5 4 3 3 2 3 3 4 4 5 5 6 6 6 5 7 7 7 8 10 11 11 9 9 8 9 9 11 11 15 14 11 11 10 10 10 10 10 10 10 10 10 9 9 9 8 8 9 8 8 7 7 7 8 8 8 8 8 8 7 7
8 9 8 8 5 3 5 7 9 9 8 5 3 5 8 9 9 9 8 8 8 8 8 7 5 5 6 6 4 3 3 3 3 3 3 4 5 5 6 5 6 6 8 9 10 10 9 9 8 9 9 9 10 15 18 14 12 11 10 9 9 9 10 10 9 9 9 9 9 9 8 8 8 8 7 7 7 7 7 7 8 8 7 7 7 7 7
9 10 9 7 7 4 2 1 3 7 9 6 7 6 5 6 9 9 9 8 9 9 8 7 6 5 4 4 3 3 3 3 3 3 4 3 4 2 4 5 6 6 8 9 10 9 8 7 8 8 13 13 13 18 19 13 10 10 9 10 10 10 9 9 9 9 9 8 8 8 9 9 8 7 8 7 7 7 6 7 7 7 7 7 7 6 6
10 9 7 7 7 7 6 3 2 4 6 7 7 9 10 6 7 8 8 9 9 8 8 8 8 6 5 4 4 4 3 3 3 2 3 4 3 1 2 5 6 6 7 8 9 8 7 6 7 11 15 17 18 19 14 10 9 9 9 9 9 10 10 9 9 9 8 8 8 8 8 8 8 7 7 7 7 7 6 6 6 6 7 7 6 6 6
9 8 8 8 8 7 7 6 3 3 4 4 6 6 6 9 9 6 9 10 9 9 8 8 8 7 6 5 4 3 3 2 3 3 4 4 4 4 2 5 5 5 6 9 8 8 7 7 10 14 14 17 17 19 11 8 7 8 9 8 8 8 8 8 8 8 8 8 8 8 7 7 7 7 7 7 7 6 6 6 6 6 6 6 6 5 5
10 10 11 9 7 6 6 6 5 4 4 2 4 5 5 4 4 7 8 7 9 8 8 7 5 6 6 6 5 4 3 4 3 3 2 3 4 5 4 4 5 5 7 9 6 7 6 9 12 12 14 15 17 13 9 8 7 8 8 8 8 8 8 8 8 8 8 8 7 7 7 7 7 6 6 6 5 5 5 6 5 5 5 5 5 5 5
10 7 8 11 11 7 6 6 6 6 7 5 5 4 4 5 6 5 3 7 8 8 6 7 7 6 4 4 3 3 3 4 4 2 3 2 1 3 3 4 4 4 7 7 7 6 5 7 9 11 12 15 15 9 8 8 8 8 8 8 8 8 8 8 8 7 7 7 8 8 7 7 6 5 5 5 4 4 4 4 4 4 5 4 4 4 3
10 11 10 9 10 8 6 6 7 7 8 7 4 3 4 7 6 7 3 4 8 7 8 6 6 5 4 4 3 2 2 3 4 1 1 3 3 3 4 3 5 6 7 6 6 4 6 6 9 9 10 11 8 7 8 8 8 8 8 7 8 8 7 7 7 7 7 6 7 6 6 6 5 5 5 4 4 4 4 4 4 4 4 4 4 5 5
8 9 10 11 7 8 9 5 6 8 7 6 7 7 8 5 6 7 6 7 8 7 7 6 6 5 5 4 3 3 2 1 2 3 3 4 4 4 2 2 2 4 6 5 6 6 5 6 8 7 9 10 7 7 7 8 8 8 8 7 7 7 7 6 7 6 6 6 5 6 6 6 5 5 4 4 4 4 4 4 4 4 4 3 4 5 5
8 8 7 8 9 6 5 5 5 2 5 5 1 1 9 11 5 3 4 6 7 6 7 7 6 6 5 5 3 2 1 2 1 1 2 2 3 3 3 3 3 3 4 5 6 6 5 7 6 8 9 6 7 7 7 8 7 7 7 8 8 6 7 8 7 8 7 7 6 5 5 5 5 6 6 5 4 5 5 5 5 6 8 6 5 5 5
6 5 5 6 6 4 3 3 4 4 1 1 1 4 5 6 7 9 8 7 7 5 5 5 4 4 3 3 3 2 2 2 1 1 4 2 3 2 4 4 3 3 4 5 5 5 6 5 6 7 7 6 6 6 6 7 8 7 7 7 8 7 6 6 6 7 7 7 7 7 6 6 6 6 6 7 7 6 6 6 5 5 5 5 6 6 6
6 6 5 4 5 5 3 4 3 3 5 6 4 3 6 5 5 4 5 2 2 5 3 3 4 3 2 2 3 3 2 3 4 3 1 2 2 3 1 1 4 3 3 4 4 5 5 5 4 4 5 6 5 5 5 6 6 7 7 8 7 7 7 7 7 6 6 7 6 6 8 7 6 6 6 6 6 7 6 6 6 6 6 6 6 7 7
Wind_Direction
35 347 16 7 337 356 41 312 324 224 218 237 236 251 334 295 259 177 155 146 136 144 136 142 138 139 129 100 98 88 98 111 91 63 61 66 64 62 54 50 46 41 41 38 36 33 29 22 18 20 16 7 1 11 21 31 34 326 310 343 359 324 279 271 213 203 212 213 212 215 218 212 212 221 226 221 217 216 217 216 211 217 219 219 207 205 209
249 250 264 102 290 256 251 240 217 257 252 216 253 235 261 269 238 125 145 134 133 131 132 136 135 122 123 122 123 131 115 86 73 63 58 54 55 54 53 46 44 42 38 36 33 34 31 27 19 16 16 12 8 359 1 7 14 356 316 332 354 18 340 288 256 240 213 220 215 210 214 218 214 215 223 226 224 219 220 221 219 214 221 222 222 210 208
214 221 235 232 258 283 253 224 234 236 245 249 243 277 81 153 132 142 140 133 124 115 123 131 132 136 137 147 125 100 79 80 89 73 55 48 46 49 49 44 39 37 37 30 28 27 28 28 21 15 13 12 12 6 357 357 359 8 325 330 346 341 347 329 298 265 235 224 224 217 212 217 217 219 221 224 227 227 223 226 226 218 220 225 225 225 216
222 178 224 204 230 243 253 228 229 221 215 219 181 222 175 219 176 147 137 135 135 135 134 139 152 152 160 137 137 118 90 90 75 86 75 52 38 42 42 40 35 31 33 33 22 20 23 22 25 18 10 12 13 9 4 358 348 349 345 359 357 4 3 333 328 306 272 242 227 223 221 217 217 218 220 221 227 225 224 223 223 227 224 224 229 229 227
257 160 204 197 205 228 229 228 216 212 214 245 213 107 64 353 159 158 165 148 130 142 148 154 154 150 123 109 93 112 96 61 69 42 52 61 46 41 35 38 34 28 27 28 22 16 17 13 23 18 15 12 9 7 8 359 356 350 348 351 357 5 11 339 318 310 289 263 238 231 228 225 224 223 220 221 222 225 225 222 222 219 226 228 225 229 233
237 131 203 171 227 225 229 13 188 196 208 180 166 168 145 109 204 172 162 132 145 150 167 168 156 143 135 107 50 60 78 124 83 66 63 36 47 41 37 31 33 27 24 22 20 12 17 9 18 15 18 7 7 1 0 21 17 357 354 354 354 349 328 251 282 304 301 283 268 248 242 239 231 229 228 226 227 226 227 227 223 224 223 224 226 225 230
234 145 167 218 225 225 81 76 64 67 70 162 197 94 112 103 104 103 116 132 151 164 152 122 113 125 128 124 151 138 101 39 95 98 74 60 52 39 37 32 31 28 22 15 15 5 14 8 16 10 12 5 2 6 359 6 8 17 6 0 358 349 336 326 320 304 320 314 303 290 267 247 243 238 234 235 234 237 236 228 225 226 229 226 225 226 227
248 199 204 221 210 86 107 81 134 64 55 72 118 142 127 96 137 142 124 110 108 141 130 142 121 148 140 144 149 145 128 336 53 54 64 48 47 47 25 22 29 28 20 13 7 1 0 359 14 5 8 2 358 2 0 4 359 16 15 1 357 358 341 337 337 337 329 304 284 285 293 289 269 251 244 250 253 260 252 253 256 240 224 233 233 229 228
249 217 222 209 88 180 132 176 151 179 201 181 194 193 170 164 125 153 148 149 157 167 166 193 160 189 159 169 150 141 125 93 2 42 46 35 30 36 31 13 12 27 20 360 358 349 359 5 8 0 358 358 353 358 357 2 3 9 10 359 351 348 345 341 343 339 335 326 309 302 294 275 293 318 333 327 317 311 319 318 307 307 296 275 273 252 242
239 231 224 210 201 232 197 165 161 187 167 185 198 289 144 165 168 148 154 173 178 193 179 213 58 176 232 197 162 150 116 98 77 19 35 28 29 16 12 355 7 17 6 347 345 339 344 8 7 352 353 353 351 354 353 354 359 2 6 2 348 343 340 343 341 339 334 327 322 316 300 310 351 50 338 318 272 267 293 329 296 288 349 313 315 318 298
190 238 255 229 232 190 68 128 133 110 108 133 88 226 207 178 167 184 160 164 172 173 184 154 205 212 215 169 116 69 79 59 34 37 17 3 15 10 4 355 4 2 350 338 328 331 339 355 358 337 352 351 350 351 351 349 349 357 357 353 346 340 336 337 332 329 324 321 320 319 328 328 323 23 302 312 322 323 297 262 251 245 226 213 216 230 264
223 217 228 247 250 174 137 131 137 136 146 121 215 214 207 145 161 157 175 178 162 158 118 164 219 234 222 129 89 53 18 26 33 32 20 5 356 353 345 8 11 339 332 327 334 340 338 351 333 329 340 346 344 343 345 341 346 350 351 344 340 333 330 329 329 324 319 319 314 322 330 344 353 336 356 351 350 344 336 295 278 285 280 273 255 247 219
234 250 231 231 152 104 144 143 135 129 142 206 216 226 112 157 128 144 132 134 128 136 163 211 223 161 55 81 27 344 12 357 10 2 10 11 8 348 343 1 345 329 335 338 337 327 336 335 324 328 339 338 334 333 333 332 340 344 342 338 334 333 329 329 332 327 328 335 334 333 338 346 339 328 334 342 336 284 280 298 288 268 272 260 258 267 263
231 212 239 237 91 99 131 135 135 129 152 196 207 79 102 100 112 129 135 131 123 145 239 153 279 10 1 5 4 357 352 1 352 354 3 5 2 353 355 338 331 342 334 337 328 327 337 328 331 337 336 325 322 322 322 325 333 333 335 335 333 331 329 327 328 332 331 330 328 331 335 333 325 315 312 299 278 276 274 272 280 280 277 272 263 253 243
237 235 242 232 225 149 194 131 144 159 222 75 96 138 128 142 119 142 131 139 138 168 145 149 354 301 339 340 340 346 342 340 349 351 1 356 353 351 338 332 345 344 336 331 330 333 330 332 332 323 319 313 310 311 310 319 325 329 331 330 332 329 326 324 328 327 325 323 327 329 332 316 297 291 287 270 274 283 278 276 270 269 266 270 268 267 269
246 218 224 230 24 125 148 169 236 164 63 126 128 127 122 77 145 158 150 136 104 95 34 20 321 330 315 307 318 339 332 332 336 341 348 346 342 338 336 341 343 342 329 329 328 326 326 325 324 319 308 305 302 301 303 314 318 322 323 329 328 326 324 325 326 322 321 324 325 317 317 323 311 297 282 273 270 279 292 291 280 265 260 263 268 271 268
268 293 50 89 147 141 155 125 83 91 109 119 118 318 168 168 148 102 304 121 132 134 86 288 292 273 266 304 329 313 313 316 329 336 333 332 333 332 336 336 339 332 329 324 320 317 319 319 317 316 309 299 299 296 299 302 308 312 315 321 326 323 323 323 321 320 322 320 314 308 322 325 313 305 296 286 271 262 275 266 263 266 264 258 261 263 263
292 267 135 95 103 142 132 110 122 127 132 125 159 159 176 157 97 153 61 113 128 135 153 265 247 257 307 314 297 308 324 329 323 322 321 323 331 327 329 329 330 327 318 315 313 313 313 313 315 314 311 306 298 297 298 293 290 293 305 318 320 319 318 318 319 319 319 318 316 325 328 316 305 294 292 295 289 280 270 282 282 274 270 273 269 263 262
24 236 172 186 165 147 165 131 124 137 141 150 158 155 220 134 140 133 105 118 116 166 141 233 265 261 259 276 302 314 318 302 312 316 320 318 319 321 321 326 325 314 314 312 311 312 311 313 312 308 304 300 295 293 290 289 286 286 293 306 308 312 314 315 314 312 313 318 327 318 307 307 314 317 308 301 295 290 277 281 314 324 316 305 290 277 267
224 257 34 355 215 178 223 168 158 154 144 143 160 144 133 123 122 127 121 159 194 194 204 200 207 243 295 293 291 300 302 313 314 306 304 310 312 316 319 317 318 312 308 307 306 305 305 305 304 302 301 299 298 296 293 291 292 294 291 288 304 311 311 309 305 310 311 316 313 312 322 324 320 317 311 308 303 296 296 299 302 297 298 300 311 319 313
224 218 158 196 230 242 223 218 209 211 193 183 188 173 152 161 167 163 169 198 264 219 58 148 217 255 258 285 313 293 294 295 293 301 307 310 311 313 311 314 313 309 312 310 308 304 302 303 302 300 299 299 300 297 291 287 286 284 283 290 304 305 304 301 301 301 303 312 315 317 312 308 306 310 314 315 317 312 306 302 292 285 279 282 279 273 266
224 232 225 183 200 208 211 219 234 211 243 182 187 185 201 181 176 169 181 174 189 215 169 242 245 255 260 279 279 285 291 290 296 304 306 306 306 306 306 305 306 307 307 308 309 308 304 300 297 295 294 293 293 291 290 286 283 279 283 291 297 298 299 300 301 313 322 316 310 307 306 310 312 308 312 306 286 290 295 287 282 280 264 258 262 279 280
243 29 1 255 222 261 0 228 203 211 194 201 200 204 211 184 173 176 186 223 181 194 212 257 267 250 271 285 283 285 283 294 305 302 300 301 300 301 307 305 306 311 310 309 309 308 308 304 299 292 288 287 287 287 283 279 275 272 274 280 284 286 290 295 316 318 310 308 314 311 307 306 309 310 306 305 271 239 242 253 267 273 276 273 270 261 252
279 230 324 271 239 270 143 197 173 197 183 200 204 200 207 224 213 195 202 209 270 295 282 233 254 286 289 281 286 291 295 300 300 300 303 303 304 305 301 303 306 306 308 312 314 313 309 302 294 291 288 286 287 286 285 279 273 275 276 274 276 281 288 304 314 310 308 307 305 305 308 309 306 302 304 305 306 251 229 238 246 255 262 268 269 265 253
276 321 316 303 286 270 239 160 190 183 181 207 215 212 199 196 217 262 222 229 224 238 242 254 248 263 290 286 291 289 295 296 290 303 310 305 302 298 300 307 309 312 312 314 314 312 308 300 295 290 285 288 290 290 292 288 285 280 276 278 291 298 298 299 301 307 310 307 303 303 306 308 305 304 303 306 306 315 290 224 236 247 248 251 257 264 259
269 269 259 245 250 237 240 166 203 202 194 210 218 221 203 201 323 244 224 218 234 231 258 268 284 283 286 288 284 292 292 291 311 308 295 303 303 307 310 311 312 313 316 318 318 318 325 321 308 297 290 289 286 285 284 280 277 270 271 279 293 291 295 299 300 301 301 298 298 299 302 303 304 302 297 297 301 305 306 315 292 255 246 253 259 259 260
244 246 262 244 233 232 218 212 205 204 202 202 216 221 223 176 146 273 279 254 243 246 259 271 260 266 266 266 284 290 292 298 293 289 302 307 311 313 313 315 316 319 317 317 320 324 324 325 326 313 294 289 295 293 289 291 289 290 288 288 289 298 295 294 296 297 296 297 297 299 300 303 302 298 297 300 298 294 299 302 302 302 315 282 233 226 253
252 243 226 242 236 222 222 215 209 197 199 202 209 218 210 160 169 187 213 233 261 248 237 239 249 253 251 272 285 286 291 290 298 311 311 309 313 316 315 318 317 315 312 316 323 326 329 332 337 343 354 6 6 1 347 331 312 301 297 302 306 300 301 300 298 300 303 306 312 314 304 300 301 300 298 293 289 290 289 287 289 299 301 302 316 293 238
243 247 246 250 260 258 240 220 217 206 207 211 214 216 213 207 212 225 225 218 217 226 240 239 237 239 262 272 273 285 293 299 312 310 315 318 313 313 317 317 319 315 312 319 326 329 330 333 338 340 351 357 357 354 349 345 332 322 313 311 305 302 301 301 305 305 307 306 300 300 306 302 296 290 285 282 284 288 289 288 290 293 291 300 302 306 282
257 254 239 234 240 246 232 211 211 216 211 200 203 209 212 212 218 225 233 233 222 227 228 237 244 258 260 261 270 286 293 301 304 303 303 305 310 314 321 324 315 309 312 321 328 332 331 331 331 333 338 341 344 344 339 333 326 320 313 306 301 295 295 307 309 303 299 295 294 293 291 287 284 283 283 284 288 293 292 290 292 288 293 298 306 300 307
260 251 250 247 237 236 234 218 214 217 217 212 214 215 209 218 225 227 220 221 222 228 235 243 255 263 263 273 290 286 289 294 295 298 305 308 310 318 322 322 318 318 319 317 318 322 323 324 324 326 332 333 334 335 331 318 308 302 296 293 287 287 286 282 290 295 294 293 291 291 291 290 289 289 289 288 289 287 289 294 293 294 298 301 299 298 308
264 242 234 234 237 236 230 223 216 217 210 209 214 216 210 211 216 224 229 224 219 216 221 230 240 246 257 270 274 278 282 291 294 300 303 306 314 317 317 316 315 312 309 314 316 319 315 317 319 329 331 331 329 326 321 314 308 301 296 294 291 293 294 316 307 292 291 290 289 291 289 289 286 287 290 290 289 289 294 293 294 298 299 297 294 294 307
260 250 240 240 243 238 233 224 223 215 209 213 212 213 217 218 214 216 222 225 215 182 211 236 236 243 254 266 268 275 280 285 291 292 291 304 312 315 318 317 313 311 311 314 318 314 315 316 320 321 325 330 326 320 313 311 310 309 310 310 306 302 301 299 296 295 285 281 281 282 283 283 287 288 290 292 292 292 289 289 292 294 294 296 296 297 317
264 266 277 266 243 237 229 225 218 220 221 220 214 212 214 215 214 220 219 213 220 218 218 221 229 231 240 253 263 269 277 286 291 297 313 308 307 308 311 312 311 311 310 312 314 319 328 327 325 323 325 323 319 315 310 309 308 308 309 310 309 308 305 300 295 289 288 286 287 290 289 290 288 288 290 290 292 291 292 293 290 291 292 294 297 297 313
269 268 260 253 239 233 233 230 221 221 217 220 216 210 213 212 209 209 205 209 215 216 218 224 226 228 240 250 270 274 282 288 293 299 306 310 309 311 311 309 308 309 311 311 314 317 329 326 328 329 327 320 317 315 315 314 312 310 308 305 303 301 300 295 294 290 290 287 288 288 288 286 285 288 292 298 297 293 289 288 288 289 291 295 296 300 306
269 265 260 273 317 317 244 203 228 240 240 248 245 226 210 209 210 207 206 210 205 209 208 207 220 232 239 254 261 277 294 294 300 303 304 309 312 312 310 308 309 311 314 311 322 339 338 329 340 334 325 317 316 315 320 322 317 312 306 304 300 299 295 293 291 289 288 289 288 288 285 287 291 291 291 288 285 283 285 287 289 291 293 295 297 302 304
280 268 272 267 204 245 299 316 259 229 218 217 221 212 199 201 205 207 203 203 207 205 202 203 211 217 235 240 265 288 283 295 303 305 309 319 318 316 310 309 309 310 312 310 334 339 330 323 336 332 322 316 318 317 316 321 319 317 312 307 301 297 295 294 292 290 290 291 291 289 290 290 286 288 289 287 285 284 285 287 292 295 295 297 300 301 305
300 294 300 273 253 262 279 257 219 315 319 288 234 212 205 200 197 198 199 204 200 200 198 206 206 211 231 244 254 252 283 296 298 305 313 312 315 313 312 309 311 313 313 325 331 325 322 327 328 322 315 316 319 317 319 322 322 316 308 306 303 301 297 293 291 290 291 291 292 292 292 289 289 289 290 292 291 293 293 293 293 294 296 299 299 302 306
330 329 318 305 283 260 239 230 233 201 220 281 269 219 204 204 195 196 195 200 196 195 197 197 207 212 213 225 242 275 285 299 303 308 313 321 318 314 313 314 312 331 323 325 320 314 320 325 323 314 317 321 321 318 321 327 328 319 310 303 299 293 295 294 295 294 294 291 289 290 293 292 291 291 289 289 291 294 295 295 294 293 292 293 299 305 309
302 312 323 325 309 293 266 266 266 229 199 203 265 256 212 191 191 191 194 190 185 185 189 198 199 212 212 217 240 252 271 290 297 301 314 322 316 313 311 306 353 347 340 335 322 316 321 320 316 317 320 325 326 320 320 322 321 311 304 299 294 295 296 301 301 299 294 292 291 292 292 296 298 296 296 296 294 293 294 295 292 292 293 295 299 305 308
311 313 321 319 329 330 320 300 277 257 218 176 245 276 240 194 187 187 188 182 178 175 192 194 203 209 210 214 217 240 255 261 276 303 323 312 316 314 315 310 340 333 351 343 323 316 314 315 328 321 326 336 331 329 331 328 319 304 301 299 298 299 300 301 299 298 296 296 295 295 296 300 300 298 298 298 298 301 301 297 294 296 297 300 304 307 308
318 319 317 313 317 335 326 317 305 286 250 210 194 272 267 194 180 185 179 181 166 176 182 199 175 206 207 195 192 228 238 268 294 296 317 312 314 315 311 329 346 333 11 335 317 316 317 327 333 331 340 336 324 330 330 318 308 306 302 302 303 305 304 304 300 300 301 300 298 298 301 298 298 300 304 301 300 299 299 301 301 301 302 303 304 307 310
325 317 315 309 311 309 284 334 328 301 286 225 207 205 261 258 185 181 179 178 170 182 190 150 135 167 203 225 208 218 232 237 256 270 289 298 310 330 319 324 320 349 352 323 327 314 325 339 340 350 343 337 331 329 321 312 307 307 307 308 308 308 307 305 304 301 302 302 304 303 299 295 296 297 297 298 299 301 304 304 301 302 303 306 312 316 317
315 311 307 306 302 306 305 293 346 359 308 275 233 211 205 234 246 182 182 174 177 176 175 164 170 183 196 193 204 217 230 246 265 291 306 301 304 112 340 324 327 336 9 353 328 323 325 341 347 347 340 337 332 326 317 313 316 317 316 314 312 311 310 312 311 308 307 308 307 304 303 302 301 298 298 298 296 301 305 309 308 310 313 315 314 317 322
305 304 300 302 308 307 297 300 287 218 245 245 292 278 185 182 224 220 188 181 181 171 179 181 179 183 183 193 208 212 223 247 265 287 289 304 307 315 23 316 321 322 358 348 320 325 327 338 349 347 342 335 329 322 314 322 332 329 322 317 315 317 317 315 316 312 311 310 311 309 310 312 309 305 301 302 306 306 307 314 318 320 318 314 315 320 325
313 323 314 299 289 284 284 278 277 264 229 249 254 233 188 191 173 210 225 184 169 167 180 175 180 194 191 190 189 202 225 250 266 235 235 287 313 310 332 321 331 17 346 315 322 326 341 5 346 344 343 335 329 321 326 334 338 331 326 323 323 322 317 314 315 314 315 313 311 311 311 306 305 303 307 309 316 320 327 335 327 329 330 329 330 340 337
306 296 291 304 291 277 277 272 270 265 261 239 227 230 216 172 194 242 229 167 153 160 172 163 175 185 187 203 219 208 224 233 236 220 258 265 199 263 305 298 302 14 338 331 336 346 4 350 348 357 346 336 330 327 336 339 334 328 328 329 328 328 327 322 320 321 320 311 309 311 313 316 317 320 324 330 325 326 326 336 337 340 341 342 338 347 348
324 311 294 264 268 281 277 278 266 254 244 236 228 265 246 205 192 136 244 198 147 162 163 175 168 165 166 177 189 210 274 292 282 241 274 297 297 321 317 349 13 16 334 320 342 53 84 359 357 353 342 340 330 339 339 333 329 338 341 338 337 338 339 337 334 335 328 328 334 336 331 326 326 331 335 340 351 7 25 10 351 344 346 359 4 5 11
314 317 312 303 312 310 292 288 292 269 261 234 208 180 167 180 182 160 178 197 154 169 171 170 168 169 173 183 216 216 163 218 299 329 352 333 326 321 335 90 215 301 326 331 337 333 14 14 360 357 349 346 344 345 342 341 337 345 346 343 341 342 345 343 343 342 344 345 348 350 352 349 354 350 359 4 6 15 30 33 25 10 5 14 25 22 20
331 319 310 317 303 286 289 288 271 321 352 308 247 136 151 165 145 89 211 178 172 184 164 171 174 180 187 175 181 233 177 251 322 319 302 326 313 317 318 333 340 324 323 328 335 331 2 354 354 8 355 356 354 350 350 351 346 344 346 348 347 348 348 350 356 1 354 355 356 353 358 2 4 10 6 7 19 26 30 44 55 48 40 40 40 40 37
330 319 321 319 314 309 297 330 323 288 233 356 226 197 198 162 149 175 186 162 161 178 170 157 173 170 188 174 190 182 215 215 163 17 302 303 324 32 44 331 327 324 327 320 325 332 330 342 350 359 359 3 356 357 353 356 354 354 348 351 353 355 357 355 351 3 5 0 359 2 17 29 18 16 12 15 24 34 34 42 46 45 45 47 48 48 44
342 347 343 342 351 350 21 76 55 78 125 166 201 104 72 87 83 77 99 107 145 141 171 168 174 170 237 184 189 224 238 279 263 197 228 358 337 300 127 259 299 292 287 306 324 335 332 335 344 19 359 349 1 352 358 4 9 2 353 351 357 3 9 7 9 6 5 9 10 2 2 13 22 21 24 23 19 17 22 29 37 39 37 38 40 43 43